Total_Precipitation_Accumulation
0.13 0.15 0.21 0.29 0.25 0.16 0.07 0.02 0.01 0.01 0.01 0.01 0.02 0.03 0.03 0.03 0.03 0.07 0.04 0.03 0.03 0.02 0.04 0.09 0.12 0.15 0.15 0.11 0.08 0.05 0.05 0.06 0.09 0.12 0.12 0.14 0.13 0.14 0.15 0.17 0.20 0.21 0.22 0.24 0.29 0.29 0.26 0.22 0.19
0.16 0.24 0.40 0.44 0.29 0.19 0.07 0.01 0.01 0.00 0.01 0.02 0.02 0.03 0.03 0.05 0.04 0.05 0.06 0.04 0.04 0.04 0.05 0.07 0.10 0.13 0.14 0.11 0.08 0.06 0.06 0.07 0.10 0.13 0.14 0.17 0.16 0.16 0.17 0.19 0.18 0.17 0.17 0.18 0.19 0.15 0.11 0.08 0.07
0.27 0.39 0.55 0.49 0.34 0.18 0.07 0.01 0.00 0.01 0.01 0.03 0.03 0.03 0.04 0.08 0.07 0.06 0.07 0.06 0.06 0.07 0.07 0.10 0.11 0.13 0.13 0.11 0.08 0.07 0.07 0.09 0.10 0.11 0.13 0.18 0.20 0.19 0.18 0.16 0.13 0.10 0.09 0.10 0.09 0.06 0.03 0.02 0.02
0.46 0.62 0.64 0.52 0.34 0.15 0.06 0.02 0.01 0.02 0.03 0.02 0.04 0.07 0.08 0.10 0.11 0.10 0.10 0.11 0.10 0.11 0.09 0.12 0.14 0.14 0.12 0.10 0.09 0.09 0.09 0.09 0.10 0.09 0.11 0.17 0.22 0.22 0.16 0.12 0.07 0.05 0.04 0.05 0.04 0.02 0.01 0.01 0.01
0.70 0.81 0.68 0.54 0.32 0.13 0.06 0.04 0.03 0.03 0.03 0.04 0.05 0.10 0.12 0.13 0.15 0.19 0.21 0.19 0.17 0.15 0.14 0.15 0.17 0.16 0.13 0.11 0.11 0.09 0.10 0.10 0.10 0.08 0.10 0.15 0.21 0.22 0.15 0.08 0.04 0.03 0.03 0.03 0.03 0.01 0.01 0.01 0.01
0.91 0.94 0.75 0.50 0.27 0.12 0.05 0.05 0.05 0.04 0.05 0.06 0.09 0.14 0.20 0.19 0.22 0.24 0.31 0.30 0.26 0.22 0.21 0.22 0.23 0.20 0.17 0.14 0.12 0.10 0.10 0.11 0.11 0.10 0.11 0.15 0.17 0.19 0.13 0.07 0.04 0.03 0.03 0.03 0.02 0.02 0.01 0.01 0.01
0.91 0.94 0.73 0.37 0.21 0.14 0.07 0.07 0.08 0.06 0.06 0.08 0.12 0.21 0.30 0.33 0.39 0.38 0.41 0.45 0.43 0.36 0.31 0.31 0.28 0.26 0.25 0.20 0.14 0.12 0.12 0.12 0.12 0.12 0.13 0.13 0.13 0.14 0.09 0.06 0.05 0.04 0.03 0.03 0.02 0.02 0.02 0.02 0.02
0.89 1.00 0.72 0.36 0.18 0.15 0.10 0.10 0.11 0.10 0.09 0.08 0.15 0.25 0.34 0.38 0.50 0.56 0.59 0.63 0.62 0.56 0.44 0.37 0.33 0.31 0.30 0.26 0.19 0.13 0.11 0.11 0.12 0.12 0.10 0.09 0.10 0.11 0.07 0.04 0.05 0.04 0.03 0.02 0.02 0.02 0.03 0.02 0.02
0.91 1.01 0.68 0.36 0.20 0.15 0.14 0.16 0.15 0.12 0.15 0.16 0.20 0.26 0.33 0.43 0.61 0.76 0.81 0.83 0.86 0.82 0.65 0.48 0.40 0.35 0.32 0.28 0.22 0.16 0.13 0.12 0.12 0.11 0.08 0.07 0.09 0.09 0.05 0.03 0.03 0.03 0.02 0.01 0.01 0.02 0.02 0.01 0.01
0.91 0.82 0.50 0.30 0.24 0.24 0.22 0.22 0.21 0.19 0.23 0.28 0.35 0.40 0.49 0.64 0.86 0.92 0.88 0.87 0.88 0.90 0.78 0.58 0.47 0.39 0.35 0.31 0.27 0.23 0.16 0.14 0.12 0.10 0.08 0.07 0.07 0.06 0.04 0.03 0.02 0.02 0.01 0.01 0.01 0.01 0.01 0.00 0.00
0.61 0.55 0.42 0.34 0.30 0.31 0.31 0.27 0.24 0.26 0.26 0.27 0.33 0.46 0.66 0.85 1.06 1.10 1.09 1.06 1.04 1.03 0.93 0.71 0.56 0.51 0.43 0.35 0.29 0.25 0.18 0.15 0.13 0.09 0.08 0.07 0.07 0.05 0.05 0.04 0.04 0.02 0.01 0.01 0.01 0.00 0.00 0.00 0.00
0.40 0.37 0.39 0.40 0.34 0.34 0.35 0.34 0.30 0.23 0.21 0.21 0.29 0.45 0.67 0.86 1.03 1.08 1.12 1.14 1.25 1.27 1.22 0.96 0.73 0.60 0.54 0.41 0.30 0.24 0.18 0.14 0.12 0.10 0.08 0.07 0.06 0.04 0.03 0.02 0.02 0.01 0.01 0.01 0.00 0.00 0.00 0.00 0.00
0.32 0.30 0.33 0.41 0.40 0.35 0.33 0.33 0.34 0.23 0.19 0.24 0.34 0.52 0.68 0.93 1.15 1.27 1.30 1.29 1.38 1.45 1.46 1.35 1.03 0.76 0.63 0.52 0.38 0.26 0.19 0.13 0.10 0.09 0.08 0.06 0.05 0.03 0.02 0.02 0.02 0.01 0.00 0.00 0.00 0.00 0.00 0.00 0.00
0.27 0.28 0.35 0.42 0.44 0.36 0.35 0.33 0.33 0.26 0.25 0.34 0.44 0.56 0.66 0.95 1.28 1.43 1.48 1.48 1.43 1.58 1.68 1.66 1.36 1.02 0.77 0.63 0.47 0.32 0.21 0.16 0.12 0.10 0.08 0.07 0.05 0.04 0.03 0.02 0.02 0.01 0.01 0.00 0.00 0.00 0.00 0.00 0.00
0.30 0.39 0.44 0.46 0.48 0.39 0.39 0.44 0.33 0.26 0.26 0.35 0.42 0.51 0.60 0.86 1.22 1.42 1.45 1.45 1.53 1.62 1.78 1.81 1.66 1.35 0.97 0.77 0.61 0.45 0.34 0.23 0.17 0.14 0.10 0.09 0.06 0.04 0.03 0.02 0.02 0.01 0.01 0.00 0.00 0.00 0.00 0.00 0.00
0.51 0.63 0.60 0.44 0.47 0.43 0.46 0.48 0.31 0.26 0.27 0.30 0.35 0.43 0.53 0.69 1.00 1.27 1.48 1.52 1.60 1.71 1.76 1.84 1.77 1.58 1.26 0.96 0.75 0.60 0.50 0.40 0.30 0.26 0.22 0.17 0.12 0.08 0.06 0.03 0.02 0.02 0.01 0.01 0.01 0.01 0.01 0.02 0.02
0.72 0.58 0.48 0.38 0.37 0.44 0.40 0.38 0.29 0.24 0.24 0.24 0.25 0.33 0.47 0.59 0.81 1.01 1.30 1.48 1.49 1.65 1.78 1.91 1.81 1.67 1.51 1.31 1.08 0.87 0.70 0.57 0.48 0.37 0.29 0.28 0.23 0.17 0.11 0.06 0.04 0.04 0.03 0.02 0.02 0.02 0.02 0.02 0.01
0.50 0.33 0.31 0.33 0.33 0.37 0.33 0.26 0.26 0.23 0.22 0.21 0.22 0.26 0.36 0.47 0.58 0.75 0.97 1.30 1.40 1.55 1.75 1.86 1.98 1.87 1.83 1.81 1.59 1.23 0.97 0.76 0.65 0.54 0.44 0.38 0.34 0.30 0.25 0.17 0.12 0.10 0.08 0.05 0.04 0.03 0.02 0.02 0.02
0.37 0.30 0.24 0.20 0.25 0.32 0.28 0.21 0.23 0.22 0.21 0.19 0.20 0.22 0.26 0.34 0.45 0.59 0.79 1.08 1.32 1.44 1.63 1.72 1.82 1.93 1.88 1.77 1.60 1.30 1.03 0.93 0.88 0.78 0.70 0.59 0.49 0.44 0.38 0.30 0.23 0.17 0.13 0.10 0.09 0.08 0.06 0.05 0.04
0.51 0.44 0.29 0.19 0.19 0.28 0.26 0.20 0.21 0.21 0.21 0.17 0.17 0.17 0.20 0.23 0.33 0.45 0.63 0.84 1.05 1.26 1.36 1.54 1.59 1.75 1.72 1.58 1.57 1.47 1.40 1.28 1.18 1.08 0.88 0.76 0.67 0.59 0.50 0.41 0.35 0.29 0.22 0.17 0.16 0.16 0.12 0.10 0.10
0.54 0.44 0.35 0.27 0.23 0.27 0.32 0.27 0.21 0.18 0.19 0.16 0.15 0.14 0.15 0.19 0.23 0.31 0.46 0.65 0.79 1.01 1.23 1.29 1.35 1.52 1.67 1.71 1.81 1.83 1.76 1.49 1.23 1.08 0.99 0.90 0.85 0.77 0.67 0.58 0.51 0.44 0.37 0.30 0.30 0.29 0.26 0.26 0.26
0.55 0.32 0.37 0.39 0.45 0.42 0.32 0.35 0.22 0.17 0.17 0.15 0.14 0.12 0.11 0.16 0.20 0.24 0.31 0.44 0.55 0.71 1.00 1.24 1.31 1.38 1.54 1.83 1.84 1.76 1.58 1.35 1.10 1.09 1.14 1.11 1.02 0.94 0.84 0.76 0.71 0.63 0.55 0.49 0.50 0.51 0.51 0.49 0.44
0.51 0.34 0.41 0.49 0.56 0.52 0.32 0.28 0.22 0.15 0.15 0.14 0.15 0.11 0.13 0.18 0.21 0.20 0.25 0.33 0.42 0.52 0.74 1.00 1.25 1.36 1.41 1.53 1.63 1.69 1.55 1.41 1.37 1.27 1.17 1.07 1.00 0.97 0.91 0.86 0.83 0.79 0.75 0.75 0.76 0.73 0.71 0.68 0.63
0.58 0.59 0.64 0.68 0.84 0.78 0.31 0.26 0.23 0.17 0.16 0.15 0.14 0.14 0.16 0.19 0.20 0.17 0.21 0.30 0.39 0.43 0.56 0.74 0.97 1.13 1.22 1.29 1.38 1.45 1.45 1.48 1.45 1.31 1.21 1.14 1.09 1.04 0.98 0.96 0.94 0.94 0.90 0.88 0.88 0.88 0.89 0.89 0.85
0.87 1.19 1.53 1.45 1.20 0.61 0.20 0.21 0.20 0.15 0.16 0.17 0.15 0.18 0.20 0.17 0.17 0.17 0.19 0.26 0.35 0.39 0.44 0.54 0.65 0.80 0.93 1.04 1.11 1.19 1.30 1.39 1.34 1.21 1.13 1.09 1.01 0.94 0.94 0.98 0.98 0.99 0.99 0.98 0.97 0.96 0.94 0.98 1.01
0.84 1.02 1.20 0.97 0.58 0.29 0.15 0.17 0.16 0.13 0.18 0.22 0.19 0.19 0.20 0.21 0.19 0.18 0.17 0.20 0.28 0.32 0.38 0.45 0.49 0.55 0.66 0.76 0.84 0.92 1.05 1.20 1.19 1.16 1.04 0.95 0.89 0.90 0.96 1.00 0.96 0.93 0.91 0.91 0.91 0.91 0.89 0.90 0.91
0.77 0.76 0.67 0.83 0.54 0.30 0.17 0.11 0.08 0.09 0.13 0.19 0.18 0.16 0.17 0.21 0.21 0.18 0.16 0.15 0.21 0.26 0.31 0.38 0.43 0.47 0.49 0.57 0.67 0.71 0.75 0.84 0.94 1.03 1.03 0.92 0.84 0.84 0.87 0.89 0.87 0.81 0.77 0.76 0.77 0.76 0.75 0.76 0.76
0.66 0.61 0.79 1.10 0.87 0.47 0.18 0.09 0.10 0.09 0.11 0.16 0.18 0.18 0.19 0.21 0.20 0.17 0.15 0.16 0.19 0.21 0.24 0.30 0.38 0.43 0.43 0.45 0.53 0.58 0.60 0.67 0.74 0.81 0.84 0.80 0.75 0.73 0.73 0.74 0.71 0.69 0.65 0.62 0.61 0.59 0.58 0.59 0.58
0.61 0.76 0.88 0.89 0.66 0.55 0.34 0.19 0.14 0.11 0.10 0.12 0.15 0.17 0.18 0.18 0.18 0.16 0.16 0.18 0.19 0.19 0.21 0.27 0.32 0.39 0.42 0.41 0.44 0.50 0.49 0.53 0.59 0.63 0.66 0.69 0.69 0.65 0.63 0.62 0.60 0.57 0.52 0.48 0.46 0.43 0.43 0.44 0.43
0.48 0.48 0.66 0.94 0.69 0.48 0.40 0.29 0.16 0.13 0.11 0.10 0.12 0.14 0.13 0.13 0.14 0.15 0.15 0.15 0.14 0.16 0.20 0.25 0.28 0.33 0.37 0.36 0.37 0.43 0.44 0.45 0.49 0.51 0.55 0.59 0.63 0.60 0.58 0.57 0.55 0.52 0.48 0.43 0.40 0.39 0.38 0.38 0.37